Regional Weather Roundup
Issued by NWS Kansas City/Pleasant Hill, MO

Home | Current Version | Previous Version | Text Only | Print | Product List | Glossary On
Versions: 1 2 3 4 5 6 7 8 9 10 11 12 13 14 15 16 17 18 19 20 21 22 23 24 25 26 27 28 29 30 31 32 33 34 35 36 37 38 39 40 41 42 43 44 45 46 47 48 49 50
000
ASUS43 KEAX 242004
RWREAX

WEATHER ROUNDUP FOR EASTERN KANSAS AND NORTHWEST MISSOURI
NATIONAL WEATHER SERVICE KANSAS CITY/PLEASANT HILL MO
300 PM CDT THU JUL 24 2014

KSZ040-057-103>105-MOZ028-029-037-043-242100-
...KANSAS CITY METROPOLITAN AREA...

CITY           SKY/WX    TMP DP  RH WIND       PRES   REMARKS
K.C. INTL      PTSUNNY   82  60  47 S13       30.08F
K.C. DOWNTOWN  SUNNY     83  59  44 SE10G17   30.06F
LEES SUMMIT    SUNNY     81  59  47 SE8       30.10F
OLATHE - IXD   SUNNY     82  58  43 SE10      30.09F
OLATHE - OJC   SUNNY     80  58  46 SE8G16    30.08F
LAWRENCE       SUNNY     86  62  44 SE13      30.07F

$$

MOZ001>008-011>017-020>025-030>033-038>040-044>046-053-054-242100-
...NORTHERN AND CENTRAL MISSOURI...

CITY           SKY/WX    TMP DP  RH WIND       PRES   REMARKS
ST. JOSEPH     MOSUNNY   81  61  50 S18       30.05F
MOSBY          PTCLDY    79  55  44 SE8G16    30.08F
WHITEMAN AFB   SUNNY     81  45  27 E7        30.10F
CLINTON        SUNNY     82  57  42 E3        30.11F
SEDALIA        MOSUNNY   82  57  42 E10       30.12F
WARSAW         NOT AVBL
MARSHALL       PTSUNNY   82  59  44 E8        30.12F
CHILLICOTHE      N/A     79  58  48 VRB7      30.09F
KIRKSVILLE     CLOUDY    76  60  57 SE8       30.11F

$$

MOZ041-047>049-056>058-063>065-088>090-097-242100-
...EASTERN AND SOUTHERN MISSOURI...

CITY           SKY/WX    TMP DP  RH WIND       PRES   REMARKS
ST. LOUIS INTL PTSUNNY   82  54  37 NE13      30.10F
SPIRIT OF STL  SUNNY     81  51  35 N9G18     30.09F
COLUMBIA       PTSUNNY   81  57  43 NE9       30.12F
JEFFERSON CITY PTSUNNY   79  55  43 VRB3      30.10F
HANNIBAL       PTSUNNY   79  52  38 NE5       30.13F
ROLLA          MOSUNNY   81  50  33 N9G16     30.11F
OSAGE BEACH    SUNNY     82  54  36 NE10      30.10F
SPRINGFIELD    SUNNY     82  55  39 E8        30.10F
BRANSON        MOSUNNY   86  59  39 E12       30.11F
NEVADA         SUNNY     84  61  45 NE3       30.10F
JOPLIN         SUNNY     86  62  44 VRB5      30.07F
WEST PLAINS    SUNNY     81  56  42 N7        30.10F
MALDEN         SUNNY     81  59  47 N8G16     30.07S

$$

IAZ060-094-KSZ022-034>040-054-083-096-NEZ052-066-093-242100-
...KANSAS...SOUTHEAST NEBRASKA AND IOWA...

CITY           SKY/WX    TMP DP  RH WIND       PRES   REMARKS
TOPEKA         SUNNY     86  61  42 SE14      30.06F
MANHATTAN      SUNNY     90  62  39 SE13G21   30.02F HX  90
EMPORIA        SUNNY     85  65  51 SE13      30.06F
CHANUTE        SUNNY     85  65  51 SE9       30.07F
WICHITA        MOSUNNY   88  68  51 SE14G20   30.03F HX  91
OMAHA          MOSUNNY   83  60  45 SE18G25   30.01F
LINCOLN        SUNNY     87  62  43 S24       29.99F
FALLS CITY     SUNNY     82  62  50 S17       30.03F
LAMONI         CLOUDY    76  58  53 S13G23    30.09S
DES MOINES     CLOUDY    80  58  46 S10       30.08S

$$



USA.gov is the U.S. government's official web portal to all federal, state and local government web resources and services.